Weather History for KIPT - January, 2013

Change the Weather History Date:

Wednesday, January 9, 2013

  Actual Average Record
Temperature  
Mean Temperature 29 °F 27 °F  
Max Temperature 38 °F 34 °F 61 °F (1998)
Min Temperature 19 °F 19 °F -7 °F (1970)
Degree Days  
Heating Degree Days 36 38  
Month to date heating degree days 328 342  
Since 1 July heating degree days 2376 2635  
Cooling Degree Days 0 0  
Month to date cooling degree days 0 0  
Year to date cooling degree days 0 0  
Moisture  
Dew Point 21 °F    
Average Humidity 85    
Maximum Humidity 100    
Minimum Humidity 69    
Precipitation  
Precipitation 0.00 in 0.09 in 0.90 in (1964)
Month to date precipitation T 0.75  
Year to date precipitation T 0.75  
Snow  
Snow 0.00 in - - ()
Month to date snowfall T  
Since 1 July snowfall 15.7  
Snow Depth 3.00 in    
Sea Level Pressure  
Sea Level Pressure 30.30 in    
Wind  
Wind Speed 1 mph (West)    
Max Wind Speed 10 mph    
Max Gust Speed 15 mph    
Visibility 3 miles    
Events      
T = Trace of Precipitation, MM = Missing Value Source: NWS Daily Summary

Daily Weather History Graph

Daily Weather History Graph

Search for Another Location

Airport or City:

Trip Planner

Search our weather history database for the weather conditions in past years. The results will help you decide how hot, cold, wet, or windy it might be!

Date:

Astronomy

Jan. 09, 2013 Rise Set
Actual Time 7:32 AM EST 4:57 PM EST
Civil Twilight 7:02 AM EST 5:28 PM EST
Nautical Twilight 6:27 AM EST 6:02 PM EST
Astronomical Twilight 5:54 AM EST 6:35 PM EST
Moon 5:09 AM EST (1/9) 2:56 PM EST (1/9)
Length of Visible Light 10h 25m
Length of Day
9h 24m
Waning Crescent, 6% of the Moon is Illuminated
Jan 9
Waning Crescent
Jan 11
New
Jan 18
First Quarter
Jan 26
Full
Feb 3
Last Quarter

Hourly Weather History & Observations

Time (EST) Temp. Windchill Dew Point Humidity Pressure Visibility Wind Dir Wind Speed Gust Speed Precip Events Conditions
12:02 AM 24.8 °F - 21.2 °F 86% 30.37 in 3.0 mi Calm Calm - N/A   Clear
12:41 AM 24.8 °F - 21.2 °F 86% 30.36 in 2.5 mi Calm Calm - N/A   Clear
12:54 AM 23.0 °F - 19.9 °F 88% 30.38 in 1.8 mi Calm Calm - N/A   Clear
1:08 AM 23.0 °F - 21.2 °F 93% 30.36 in 3.0 mi Calm Calm - N/A   Clear
1:54 AM 21.0 °F - 19.0 °F 92% 30.38 in 2.5 mi Calm Calm - N/A   Clear
2:16 AM 21.2 °F - 19.4 °F 93% 30.36 in 3.0 mi Calm Calm - N/A   Clear
2:41 AM 21.2 °F - 17.6 °F 86% 30.36 in 2.5 mi Calm Calm - N/A   Clear
2:54 AM 21.0 °F - 19.0 °F 92% 30.38 in 2.5 mi Calm Calm - N/A   Clear
3:03 AM 21.2 °F - 19.4 °F 93% 30.36 in 3.0 mi Calm Calm - N/A   Clear
3:45 AM 19.4 °F - 17.6 °F 93% 30.34 in 2.5 mi Calm Calm - N/A   Clear
3:54 AM 19.9 °F - 18.0 °F 92% 30.36 in 3.0 mi Calm Calm - N/A   Clear
4:10 AM 19.4 °F - 17.6 °F 93% 30.34 in 2.5 mi Calm Calm - N/A   Clear
4:35 AM 19.4 °F - 17.6 °F 93% 30.34 in 3.0 mi Calm Calm - N/A   Clear
4:49 AM 19.4 °F - 17.6 °F 93% 30.34 in 2.5 mi Calm Calm - N/A   Clear
4:54 AM 19.9 °F - 16.0 °F 85% 30.37 in 2.5 mi Calm Calm - N/A   Clear
5:05 AM 19.4 °F - 17.6 °F 93% 30.34 in 3.0 mi Calm Calm - N/A   Clear
5:54 AM 19.9 °F - 17.1 °F 89% 30.35 in 3.0 mi Calm Calm - N/A   Clear
6:54 AM 19.9 °F - 18.0 °F 92% 30.37 in 4.0 mi Calm Calm - N/A   Clear
7:51 AM 19.4 °F - 17.6 °F 93% 30.33 in 2.5 mi Calm Calm - N/A   Clear
7:54 AM 19.9 °F - 17.1 °F 89% 30.35 in 2.5 mi Calm Calm - N/A   Clear
8:54 AM 21.9 °F - 21.0 °F 96% 30.34 in 2.5 mi Calm Calm - N/A   Clear
9:54 AM 24.1 °F 19.7 °F 21.0 °F 88% 30.35 in 2.5 mi West 3.5 mph - N/A   Clear
10:37 AM 24.8 °F - 23.0 °F 93% 30.29 in 3.0 mi Calm Calm - N/A   Overcast
10:54 AM 24.8 °F - 23.0 °F 93% 30.29 in 3.0 mi Calm Calm - N/A   Overcast
11:01 AM 24.8 °F - 23.0 °F 93% 30.30 in 2.5 mi Calm Calm - N/A   Overcast
11:18 AM 26.6 °F 18.2 °F 23.0 °F 86% 30.32 in 3.0 mi West 8.1 mph - N/A   Overcast
11:54 AM 26.1 °F - 23.0 °F 88% 30.28 in 3.0 mi Calm Calm - N/A   Overcast
12:54 PM 28.0 °F - 25.0 °F 88% 30.19 in 3.0 mi Calm Calm - N/A   Overcast
1:01 PM 28.4 °F 24.6 °F 24.8 °F 86% 30.18 in 2.5 mi WNW 3.5 mph - N/A   Overcast
1:27 PM 28.4 °F 22.2 °F 24.8 °F 86% 30.17 in 3.0 mi WSW 5.8 mph - N/A   Overcast
1:54 PM 28.9 °F 21.9 °F 25.0 °F 85% 30.19 in 3.0 mi WSW 6.9 mph - N/A   Overcast
2:54 PM 30.9 °F - 25.0 °F 79% 30.19 in 3.0 mi Calm Calm - N/A   Haze
3:54 PM 33.1 °F - 25.0 °F 72% 30.17 in 4.0 mi Calm Calm - N/A   Haze
4:54 PM 30.9 °F - 25.0 °F 79% 30.19 in 3.0 mi Calm Calm - N/A   Haze
5:54 PM 27.0 °F - 24.1 °F 89% 30.22 in 4.0 mi Calm Calm - N/A   Clear
6:54 PM 25.0 °F - 23.0 °F 92% 30.25 in 3.0 mi Calm Calm - N/A   Clear
7:54 PM 25.0 °F - 23.0 °F 92% 30.25 in 3.0 mi Calm Calm - N/A   Clear
8:37 PM 26.6 °F - 24.8 °F 93% 30.23 in 2.5 mi Calm Calm - N/A   Clear
8:54 PM 24.1 °F 18.2 °F 23.0 °F 96% 30.27 in 2.5 mi WNW 4.6 mph - N/A   Clear
9:54 PM 24.1 °F - 21.0 °F 88% 30.28 in 3.0 mi Calm Calm - N/A   Clear
10:03 PM 23.0 °F - 21.2 °F 93% 30.25 in 2.5 mi Calm Calm - N/A   Clear
10:54 PM 24.1 °F - 23.0 °F 96% 30.30 in 2.5 mi Calm Calm - N/A   Clear
11:02 PM 23.0 °F - 21.2 °F 93% 30.28 in 3.0 mi Calm Calm - N/A   Clear
11:10 PM 23.0 °F - 21.2 °F 93% 30.28 in 2.5 mi Calm Calm - N/A   Clear
11:28 PM 26.6 °F 20.0 °F 21.2 °F 80% 30.29 in 4.0 mi West 5.8 mph - N/A   Clear
11:54 PM 36.0 °F 29.6 °F 23.0 °F 59% 30.32 in 10.0 mi WNW 8.1 mph - N/A   Clear